カタログに戻る

STARLINK-32695

運用中通信VLEO
NORAD 62866·PAYLOAD·🇺🇸 United States

打ち上げ Feb 1, 2025 から Vandenberg Space Force Base

Loading…

次のパス (今後24時間)

TLE

最新Source: CelesTrak SupGP

元期: Sep 15, 2026, 02:12 UTC

1 62866C 25022N   26258.09215278  .00067637  00000+0  19980-2 0  2581
2 62866  53.1584 325.3015 0001200  90.0011 238.4050 15.34362487    15

AllMySatでSTARLINK-32695をリアルタイム追跡

Download on the App Store